Weather History for Whitefield, NH

Change the Weather History Date:

Wednesday, January 9, 2013

  Actual Average Record
Temperature  
Mean Temperature 20 °F -  
Max Temperature 37 °F 23 °F 55 °F (2008)
Min Temperature 3 °F 3 °F -36 °F (2004)
Degree Days  
Heating Degree Days 45    
Moisture  
Dew Point 19 °F    
Average Humidity 81    
Maximum Humidity 89    
Minimum Humidity 68    
Precipitation  
Precipitation 0.00 in - - ()
Sea Level Pressure  
Sea Level Pressure 30.11 in    
Wind  
Wind Speed 2 mph (WSW)    
Max Wind Speed 9 mph    
Max Gust Speed 16 mph    
Visibility 8 miles    
Events Snow    
Averages and records for this station are not official NWS values.
T = Trace of Precipitation, MM = Missing Value Source: NWS Daily Summary

Daily Weather History Graph

Daily Weather History Graph

Search for Another Location

Airport:

Trip Planner

Search our weather history database for the weather conditions in past years. The results will help you decide how hot, cold, wet, or windy it might be!

Date:

Astronomy

Jan. 09, 2013 Rise Set
Actual Time 7:21 AM EST 4:25 PM EST
Civil Twilight 6:48 AM EST 4:58 PM EST
Nautical Twilight 6:12 AM EST 5:34 PM EST
Astronomical Twilight 5:37 AM EST 6:09 PM EST
Moon 4:57 AM EST (1/9) 2:24 PM EST (1/9)
Length of Visible Light 10h 10m
Length of Day
9h 04m
Waning Crescent, 6% of the Moon is Illuminated
Jan 9
Waning Crescent
Jan 11
New
Jan 18
First Quarter
Jan 26
Full
Feb 3
Last Quarter

Hourly Weather History & Observations

Time (EST) Temp. Windchill Dew Point Humidity Pressure Visibility Wind Dir Wind Speed Gust Speed Precip Events Conditions
12:52 AM 18.0 °F - 15.1 °F 88% 30.39 in 10.0 mi Calm Calm - N/A   Overcast
1:49 AM 17.6 °F - 12.2 °F 79% 30.33 in 10.0 mi Calm Calm - N/A   Scattered Clouds
2:52 AM 12.9 °F - 9.0 °F 84% 30.38 in 10.0 mi Calm Calm - N/A   Clear
3:52 AM 10.0 °F - 6.1 °F 84% 30.36 in 10.0 mi Calm Calm - N/A   Clear
4:52 AM 8.1 °F - 3.9 °F 83% 30.35 in 10.0 mi Calm Calm - N/A   Clear
5:52 AM 6.1 °F - 1.0 °F 80% 30.37 in 10.0 mi Calm Calm - N/A   Clear
6:52 AM 3.9 °F - -0.9 °F 80% 30.39 in 10.0 mi Calm Calm - N/A   Clear
8:52 AM 5.0 °F - 1.0 °F 84% 30.38 in 5.0 mi Calm Calm - N/A   Clear
9:52 AM 15.1 °F - 12.0 °F 88% 30.32 in 6.0 mi Calm Calm - N/A   Clear
10:52 AM 19.9 °F - 17.1 °F 89% 30.28 in 4.0 mi Calm Calm - N/A   Clear
12:52 PM 26.1 °F - 21.0 °F 81% 30.11 in 10.0 mi Calm Calm - N/A   Unknown
1:52 PM 28.0 °F - 21.0 °F 75% 30.13 in 10.0 mi Calm Calm - N/A   Clear
2:52 PM 28.9 °F - 21.0 °F 72% 30.07 in 10.0 mi Calm Calm - N/A   Overcast
3:08 PM 30.2 °F 21.9 °F 23.0 °F 75% 30.01 in 2.0 mi West 9.2 mph - 0.00 in Snow Light Snow
3:13 PM 28.4 °F - 23.0 °F 80% 29.99 in 1.0 mi Calm Calm - 0.00 in Snow Light Snow
3:22 PM 28.4 °F - 24.8 °F 86% 30.00 in 2.0 mi Calm Calm - 0.00 in Snow Light Snow
3:30 PM 28.4 °F 23.3 °F 24.8 °F 86% 29.99 in 6.0 mi East 4.6 mph - 0.00 in Snow Light Snow
3:48 PM 30.2 °F 21.9 °F 26.6 °F 86% 29.94 in 8.0 mi East 9.2 mph - 0.00 in Snow Light Snow
3:52 PM 30.9 °F 23.5 °F 26.1 °F 82% 29.99 in 9.0 mi East 8.1 mph - 0.00 in   Overcast
4:52 PM 30.0 °F 23.2 °F 25.0 °F 82% 29.94 in 10.0 mi West 6.9 mph - N/A   Overcast
5:52 PM 30.0 °F 25.2 °F 26.1 °F 85% 29.94 in 10.0 mi WNW 4.6 mph - N/A   Overcast
6:52 PM 26.1 °F - 23.0 °F 88% 29.94 in 10.0 mi Calm Calm - N/A   Mostly Cloudy
7:52 PM 27.0 °F - 24.1 °F 89% 29.94 in 10.0 mi Calm Calm - N/A   Overcast
8:52 PM 35.1 °F 29.3 °F 28.0 °F 76% 29.94 in 7.0 mi SW 6.9 mph 16.1 mph 0.00 in Snow Light Snow
9:52 PM 37.9 °F 32.1 °F 28.0 °F 68% 29.94 in 10.0 mi West 8.1 mph - 0.00 in   Overcast
10:17 PM 37.4 °F 30.8 °F 28.4 °F 70% 29.90 in 8.0 mi West 9.2 mph 16.1 mph 0.00 in Snow Light Snow
10:52 PM 35.1 °F 31.0 °F 27.0 °F 72% 29.94 in 10.0 mi SW 4.6 mph - 0.00 in   Overcast
11:52 PM 36.0 °F 30.3 °F 28.0 °F 73% 29.95 in 9.0 mi WSW 6.9 mph - 0.00 in Snow Light Snow